Location: Treviso
(45.6669°N, 12.2430°E)
Time: 14:25:26
(UTC+01:00)

BlueWalker 3 - Visible Passes

Search period start: 02 December 2022 00:00
Search period end: 12 December 2022 00:00
Orbit: 500 x 519 km, 53.2° (Epoch: 01 December)

Date Brightness Start Highest point End Pass type
(mag) Time Alt. Az. Time Alt. Az. Time Alt. Az.
02 Dec 3.1 16:59:41 10° WNW 17:03:14 32° NNW 17:06:46 10° NE visible
02 Dec 3.5 18:39:17 10° NW 18:41:59 26° NNW 18:41:59 26° NNW visible
03 Dec 3.2 18:20:54 10° NW 18:24:19 28° N 18:24:20 28° N visible
04 Dec 3.1 18:02:31 10° NW 18:05:58 28° N 18:06:44 26° NNE visible
04 Dec 5.0 19:41:13 10° NW 19:41:33 12° NW 19:41:33 12° NW visible
05 Dec 3.1 17:44:08 10° NW 17:47:36 29° N 17:49:10 22° NE visible
05 Dec 4.4 19:22:49 10° NW 19:24:00 19° NW 19:24:00 19° NW visible
06 Dec 3.1 17:25:45 10° NW 17:29:13 29° N 17:31:40 16° ENE visible
06 Dec 3.6 19:04:25 10° WNW 19:06:30 30° NW 19:06:30 30° NW visible
07 Dec 3.0 17:07:21 10° NW 17:10:51 30° NNE 17:14:15 10° ENE visible
07 Dec 2.5 18:46:00 10° WNW 18:49:06 54° NW 18:49:06 54° NW visible
08 Dec 1.8 18:27:35 10° WNW 18:31:31 85° NNE 18:31:50 74° ESE visible
09 Dec 1.8 18:09:10 10° WNW 18:13:06 90° NE 18:14:44 33° ESE visible
09 Dec 5.1 19:48:51 10° W 19:49:36 13° W 19:49:36 13° W visible
10 Dec 1.9 17:50:45 10° WNW 17:54:40 86° SSW 17:57:53 15° SE visible
10 Dec 4.7 19:30:33 10° W 19:32:46 15° SW 19:32:46 15° SW visible
11 Dec 2.0 17:32:19 10° WNW 17:36:14 82° SSW 17:40:07 10° SE visible
11 Dec 4.8 19:12:16 10° W 19:14:21 14° SW 19:16:17 10° SSW visible
